Tillbaka till svenska Fidonet
English   Information   Debug  
FILM   0/18
FNEWS_PUBLISH   4983
FN_SYSOP   42232
FN_SYSOP_OLD1   71952
FTP_FIDO   0/2
FTSC_PUBLIC   0/13976
FUNNY   0/4886
GENEALOGY.EUR   0/71
GET_INFO   105
GOLDED   117/408
HAM   7080/16725
HOLYSMOKE   0/6791
HOT_SITES   0/1
HTMLEDIT   0/71
HUB203   466
HUB_100   264
HUB_400   39
HUMOR   0/29
IC   138/2851
INTERNET   0/424
INTERUSER   0/3
IP_CONNECT   719
JAMNNTPD   0/233
JAMTLAND   0/47
KATTY_KORNER   0/41
LAN   0/16
LINUX-USER   0/19
LINUXHELP   0/1155
LINUX   0/22389
LINUX_BBS   0/957
mail   18.68
mail_fore_ok   249
MENSA   0/341
MODERATOR   0/102
MONTE   0/992
MOSCOW_OKLAHOMA   0/1245
MUFFIN   0/783
MUSIC   0/321
N203_STAT   938
N203_SYSCHAT   313
NET203   321
NET204   69
NET_DEV   0/10
NORD.ADMIN   0/101
NORD.CHAT   0/2572
NORD.FIDONET   189
NORD.HARDWARE   0/28
NORD.KULTUR   0/114
NORD.PROG   0/32
NORD.SOFTWARE   0/88
NORD.TEKNIK   0/58
NORD   0/453
OCCULT_CHAT   0/93
OS2BBS   0/787
OS2DOSBBS   0/580
OS2HW   0/42
OS2INET   0/37
OS2LAN   0/134
OS2PROG   0/36
OS2REXX   0/113
OS2USER-L   207
OS2   0/4831
OSDEBATE   0/18996
PASCAL   0/490
PERL   0/457
PHP   0/45
POINTS   0/405
POLITICS   0/29554
POL_INC   10792/14731
PSION   103
R20_ADMIN   1133
R20_AMATORRADIO   0/2
R20_BEST_OF_FIDONET   16
R20_CHAT   0/897
R20_DEPP   0/3
R20_DEV   400
R20_ECHO2   1890
R20_ECHOPRES   0/35
R20_ESTAT   0/719
R20_FIDONETPROG...
...RAM.MYPOINT
  0/2
R20_FIDONETPROGRAM   0/22
R20_FIDONET   0/248
R20_FILEFIND   0/24
R20_FILEFOUND   0/22
R20_HIFI   0/3
R20_INFO2   3783
R20_INTERNET   0/12940
R20_INTRESSE   0/60
R20_INTR_KOM   0/99
R20_KANDIDAT.CHAT   42
R20_KANDIDAT   28
R20_KOM_DEV   112
R20_KONTROLL   0/13360
R20_KORSET   0/18
R20_LOKALTRAFIK   0/24
R20_MODERATOR   0/1852
R20_NC   76
R20_NET200   245
R20_NETWORK.OTH...
...ERNETS
  0/13
R20_OPERATIVSYS...
...TEM.LINUX
  0/44
R20_PROGRAMVAROR   0/1
R20_REC2NEC   534
R20_SFOSM   0/341
R20_SF   0/108
R20_SPRAK.ENGLISH   0/1
R20_SQUISH   107
R20_TEST   2
R20_WORST_OF_FIDONET   20
RAR   0/9
RA_MULTI   106
RA_UTIL   0/162
REGCON.EUR   0/2069
REGCON   0/13
SCIENCE   0/1206
SF   0/239
SHAREWARE_SUPPORT   0/5146
SHAREWRE   0/14
SIMPSONS   0/169
STATS_OLD1   0/2539.065
STATS_OLD2   0/2530
STATS_OLD3   0/2395.095
STATS_OLD4   0/1692.25
SURVIVOR   0/495
SYSOPS_CORNER   0/3
SYSOP   0/84
TAGLINES   0/112
TEAMOS2   0/4530
TECH   0/2617
TEST.444   0/105
TRAPDOOR   0/19
TREK   0/755
TUB   0/290
UFO   9/40
UNIX   0/1316
USA_EURLINK   0/102
USR_MODEMS   0/1
VATICAN   0/2740
VIETNAM_VETS   0/14
VIRUS   0/378
VIRUS_INFO   0/201
VISUAL_BASIC   0/473
WHITEHOUSE   0/5187
WIN2000   0/101
WIN32   0/30
WIN95   347/4291
WIN95_OLD1   0/70272
WINDOWS   1312/1517
WWB_SYSOP   0/419
WWB_TECH   733/810
ZCC-PUBLIC   0/1
ZEC   4

 
4DOS   0/134
ABORTION   0/7
ALASKA_CHAT   0/506
ALLFIX_FILE   0/1313
ALLFIX_FILE_OLD1   0/7997
ALT_DOS   0/152
AMATEUR_RADIO   0/1039
AMIGASALE   0/14
AMIGA   0/331
AMIGA_INT   0/1
AMIGA_PROG   0/20
AMIGA_SYSOP   0/26
ANIME   0/15
ARGUS   0/924
ASCII_ART   0/340
ASIAN_LINK   0/651
ASTRONOMY   0/417
AUDIO   0/92
AUTOMOBILE_RACING   0/105
BABYLON5   0/17862
BAG   135
BATPOWER   0/361
BBBS.ENGLISH   0/382
BBSLAW   0/109
BBS_ADS   0/5290
BBS_INTERNET   0/507
BIBLE   0/3563
BINKD   0/1119
BINKLEY   0/215
BLUEWAVE   0/2173
CABLE_MODEMS   0/25
CBM   0/46
CDRECORD   0/66
CDROM   0/20
CLASSIC_COMPUTER   0/378
COMICS   0/15
CONSPRCY   0/899
COOKING   42028
COOKING_OLD1   0/24719
COOKING_OLD2   0/40862
COOKING_OLD3   0/37489
COOKING_OLD4   0/35496
COOKING_OLD5   9370
C_ECHO   0/189
C_PLUSPLUS   0/31
DIRTY_DOZEN   0/201
DOORGAMES   0/2333
DOS_INTERNET   0/196
duplikat   6102
ECHOLIST   17483/18295
EC_SUPPORT   246/318
ELECTRONICS   0/359
ELEKTRONIK.GER   1534
ENET.LINGUISTIC   0/13
ENET.POLITICS   0/4
ENET.SOFT   0/11701
ENET.SYSOP   34336
ENET.TALKS   0/32
ENGLISH_TUTOR   0/2000
EVOLUTION   304/1335
FDECHO   0/217
FDN_ANNOUNCE   6562/7068
FIDONEWS   25122
FIDONEWS_OLD1   0/49742
FIDONEWS_OLD2   0/35949
FIDONEWS_OLD3   0/30874
FIDONEWS_OLD4   0/37224
FIDO_SYSOP   12973
FIDO_UTIL   0/180
FILEFIND   0/209
FILEGATE   0/212
Möte HAM, 16725 texter
 lista första sista föregående nästa
Text 645, 778 rader
Skriven 2005-10-21 01:01:07 av Amsat List (1:323/120.0)
Ärende: 
========
SB KEPS @ AMSAT  $ORB05293.O
Orbital Elements  05293.OSCAR

HR AMSAT ORBITAL ELEMENTS FOR OSCAR SATELLITES
FROM WA5QGD FORT WORTH,TX October 20, 2005
Send SUBSCRIBE KEPS/UNSUBSCRIBE KEPS to majordomo@amsat.org only
BID: ORB05293.O
TO ALL RADIO AMATEURS BT

Satellite: AO-07
Catalog number: 07530
Epoch time:      05292.96922926
Element set:    0497
Inclination:      101.6139 deg
RA of node:       336.5551 deg
Eccentricity:    0.0012152
Arg of perigee:   352.8813 deg
Mean anomaly:     007.2086 deg
Mean motion:   12.53570843 rev/day
Decay rate:       -2.8e-07 rev/day^2
Epoch rev:           41528
Checksum:              298

Satellite: AO-10
Catalog number: 14129
Epoch time:      05293.38312652
Element set:     225
Inclination:      027.4618 deg
RA of node:       007.6298 deg
Eccentricity:    0.6034073
Arg of perigee:   230.6593 deg
Mean anomaly:     058.2069 deg
Mean motion:   02.05868691 rev/day
Decay rate:        5.0e-08 rev/day^2
Epoch rev:           16811
Checksum:              296

Satellite: UO-11
Catalog number: 14781
Epoch time:      05292.60054991
Element set:    0905
Inclination:      098.2075 deg
RA of node:       292.7330 deg
Eccentricity:    0.0008532
Arg of perigee:   324.7621 deg
Mean anomaly:     035.2983 deg
Mean motion:   14.79325914 rev/day
Decay rate:       2.76e-06 rev/day^2
Epoch rev:           16019
Checksum:              306

Satellite: RS-10/11
Catalog number: 18129
Epoch time:      05293.68045655
Element set:     816
Inclination:      082.9232 deg
RA of node:       145.3347 deg
Eccentricity:    0.0013014
Arg of perigee:   042.6007 deg
Mean anomaly:     317.6155 deg
Mean motion:   13.72765860 rev/day
Decay rate:        4.6e-07 rev/day^2
Epoch rev:           91829
Checksum:              301

Satellite: FO-20
Catalog number: 20480
Epoch time:      05293.82264373
Element set:      42
Inclination:      099.0365 deg
RA of node:       084.2308 deg
Eccentricity:    0.0539893
Arg of perigee:   314.9158 deg
Mean anomaly:     040.9307 deg
Mean motion:   12.83348856 rev/day
Decay rate:       -2.1e-07 rev/day^2
Epoch rev:           73561
Checksum:              309

Satellite: RS-12/13
Catalog number: 21089
Epoch time:      05293.74453628
Element set:      47
Inclination:      082.9263 deg
RA of node:       177.7240 deg
Eccentricity:    0.0030828
Arg of perigee:   089.1080 deg
Mean anomaly:     271.3616 deg
Mean motion:   13.74455783 rev/day
Decay rate:        2.6e-07 rev/day^2
Epoch rev:           73774
Checksum:              321

Satellite: RS-15
Catalog number: 23439
Epoch time:      05292.92757578
Element set:    0949
Inclination:      064.8147 deg
RA of node:       265.8043 deg
Eccentricity:    0.0166876
Arg of perigee:   294.7657 deg
Mean anomaly:     063.5983 deg
Mean motion:   11.27551579 rev/day
Decay rate:       -3.9e-07 rev/day^2
Epoch rev:           44545
Checksum:              372

Satellite: FO-29
Catalog number: 24278
Epoch time:      05293.70830894
Element set:      74
Inclination:      098.5289 deg
RA of node:       326.2434 deg
Eccentricity:    0.0350158
Arg of perigee:   210.8530 deg
Mean anomaly:     147.1601 deg
Mean motion:   13.52915735 rev/day
Decay rate:       -2.3e-07 rev/day^2
Epoch rev:           45316
Checksum:              306

Satellite: SO-33
Catalog number: 25509
Epoch time:      05292.69063243
Element set:    0493
Inclination:      031.4299 deg
RA of node:       048.8204 deg
Eccentricity:    0.0354867
Arg of perigee:   174.3398 deg
Mean anomaly:     186.1383 deg
Mean motion:   14.28046002 rev/day
Decay rate:       5.54e-06 rev/day^2
Epoch rev:           36463
Checksum:              319

Satellite: AO-40
Catalog number: 26609
Epoch time:      05291.54141465
Element set:     618
Inclination:      007.5105 deg
RA of node:       274.5695 deg
Eccentricity:    0.7921776
Arg of perigee:   093.4814 deg
Mean anomaly:     349.3873 deg
Mean motion:   01.25583665 rev/day
Decay rate:      -3.53e-06 rev/day^2
Epoch rev:            2281
Checksum:              326

Satellite: VO-52
Catalog number: 28650
Epoch time:      05292.67230745
Element set:    0157
Inclination:      097.8995 deg
RA of node:       004.6577 deg
Eccentricity:    0.0028509
Arg of perigee:   064.6474 deg
Mean anomaly:     295.7690 deg
Mean motion:   14.80962059 rev/day
Decay rate:       2.01e-06 rev/day^2
Epoch rev:           02478
Checksum:              340

/EX
SB KEPS @ AMSAT  $ORB05293.D
Orbital Elements  05293.MICROS

HR AMSAT ORBITAL ELEMENTS FOR THE MICROSATS
FROM WA5QGD FORT WORTH,TX October 20, 2005
Send SUBSCRIBE KEPS/UNSUBSCRIBE KEPS to majordomo@amsat.org only
BID: ORB05293.D
TO ALL RADIO AMATEURS BT

Satellite: UO-14
Catalog number: 20437
Epoch time:      05292.61716121
Element set:     898
Inclination:      098.1981 deg
RA of node:       295.3893 deg
Eccentricity:    0.0009997
Arg of perigee:   179.6352 deg
Mean anomaly:     180.4847 deg
Mean motion:   14.31429680 rev/day
Decay rate:        1.4e-07 rev/day^2
Epoch rev:           82183
Checksum:              339

Satellite: AO-16
Catalog number: 20439
Epoch time:      05293.57713627
Element set:     584
Inclination:      098.2004 deg
RA of node:       311.8937 deg
Eccentricity:    0.0010587
Arg of perigee:   184.0966 deg
Mean anomaly:     176.0150 deg
Mean motion:   14.31695751 rev/day
Decay rate:        3.8e-07 rev/day^2
Epoch rev:           82203
Checksum:              308

Satellite: WO-18
Catalog number: 20441
Epoch time:      05292.73683597
Element set:    0785
Inclination:      098.2093 deg
RA of node:       315.6079 deg
Eccentricity:    0.0011207
Arg of perigee:   187.0807 deg
Mean anomaly:     173.0225 deg
Mean motion:   14.31767303 rev/day
Decay rate:        1.5e-07 rev/day^2
Epoch rev:           82197
Checksum:              309

